Chillicothe, MO

1:55 PM CDT on June 28, 2017 (GMT -0500)
Chillicothe

Weather History for KCDJ - April, 2013

Change the Weather History Date:

Friday, April 26, 2013

  Actual Average (KIRK) Record (KIRK)
Temperature  
Mean Temperature 54 °F -  
Max Temperature 57 °F 70 °F 88 °F (1987)
Min Temperature 51 °F 47 °F 30 °F (1919)
Degree Days  
Heating Degree Days 11    
Growing Degree Days 4 (Base 50)    
Moisture  
Dew Point 44 °F    
Average Humidity 70    
Maximum Humidity 86    
Minimum Humidity 53    
Precipitation  
Precipitation 0.09 in - - ()
Sea Level Pressure  
Sea Level Pressure 30.23 in    
Wind  
Wind Speed 9 mph (SSE)    
Max Wind Speed 16 mph    
Max Gust Speed 23 mph    
Averages and records for this station are not official NWS values.
T = Trace of Precipitation, MM = Missing Value Source: NWS Daily Summary

Daily Weather History Graph

Daily Weather History Graph

Search for Another Location

Airport or City:

Trip Planner

Search our weather history database for the weather conditions in past years. The results will help you decide how hot, cold, wet, or windy it might be!

Date:

Astronomy

Apr. 26, 2013 Rise Set
Actual Time 6:20 AM CDT 8:03 PM CDT
Civil Twilight 5:52 AM CDT 8:32 PM CDT
Nautical Twilight 5:17 AM CDT 9:07 PM CDT
Astronomical Twilight 4:39 AM CDT 9:45 PM CDT
Moon 9:27 PM CDT (4/26) 6:48 AM CDT (4/26)
Length of Visible Light 14h 40m
Length of Day
13h 43m
Full, 99% of the Moon is Illuminated
Apr 26
Full
May 2
Last Quarter
May 9
New
May 17
First Quarter
May 24
Full

Hourly Weather History & Observations

Time (CDT) Temp. Dew Point Humidity Pressure Visibility Wind Dir Wind Speed Gust Speed Precip Events Conditions
12:52 AM 55.9 °F 39.9 °F 55% 30.19 in - SE 6.9 mph - N/A   Unknown
1:52 AM 55.0 °F 39.9 °F 57% 30.20 in - SE 4.6 mph - N/A   Unknown
2:52 AM 55.0 °F 39.9 °F 57% 30.20 in - SE 6.9 mph - N/A   Unknown
3:52 AM 55.9 °F 39.0 °F 53% 30.17 in - SSE 11.5 mph - N/A   Unknown
4:52 AM 55.9 °F 39.0 °F 53% 30.21 in - South 10.4 mph - N/A   Unknown
5:52 AM 55.9 °F 39.9 °F 55% 30.19 in - South 11.5 mph - 0.02 in   Unknown
6:52 AM 54.0 °F 44.1 °F 69% 30.22 in - SSW 16.1 mph 23.0 mph N/A   Unknown
7:52 AM 51.1 °F 46.9 °F 86% 30.24 in - SSE 8.1 mph - N/A   Unknown
8:52 AM 52.0 °F 46.9 °F 83% 30.25 in - SSE 6.9 mph - 0.01 in   Unknown
9:52 AM 53.1 °F 46.9 °F 80% 30.26 in - SSE 10.4 mph - 0.03 in   Unknown
10:52 AM 53.1 °F 46.0 °F 77% 30.28 in - SSE 11.5 mph - 0.02 in   Unknown
11:52 AM 54.0 °F 48.0 °F 80% 30.27 in - South 12.7 mph 20.7 mph N/A   Unknown
12:52 PM 55.9 °F 48.0 °F 75% 30.25 in - SSE 11.5 mph 18.4 mph N/A   Unknown
1:52 PM 55.9 °F 48.9 °F 77% 30.25 in - South 12.7 mph 20.7 mph 0.01 in   Unknown
2:52 PM 57.9 °F 48.9 °F 72% 30.22 in - South 11.5 mph - N/A   Unknown
3:52 PM 57.0 °F 46.0 °F 67% 30.20 in - South 12.7 mph - N/A   Unknown
4:52 PM 57.0 °F 45.0 °F 64% 30.22 in - South 10.4 mph - N/A   Unknown
5:52 PM 55.9 °F 45.0 °F 67% 30.23 in - SSW 9.2 mph - N/A   Unknown
6:52 PM 54.0 °F 45.0 °F 72% 30.23 in - South 11.5 mph 17.3 mph N/A   Unknown
7:52 PM 53.1 °F 44.1 °F 71% 30.25 in - Variable 6.9 mph - N/A   Unknown
8:52 PM 52.0 °F 44.1 °F 74% 30.26 in - South 4.6 mph - N/A   Unknown
9:52 PM 52.0 °F 45.0 °F 77% 30.27 in - SSE 6.9 mph - N/A   Unknown
10:52 PM 51.1 °F 45.0 °F 80% 30.26 in - SSE 5.8 mph - N/A   Unknown
11:52 PM 51.1 °F 45.0 °F 80% 30.26 in - SSE 3.5 mph - N/A   Unknown